Location: Gajan
(43.0218°N, 1.1244°E)
Time: 03:32:18
(UTC+00:00)

USA 215 - Pass Details

Date: 22 April 2021
Orbit: 1101 x 1107 km, 123.0° (Epoch: 14 May)

Event Time Altitude Azimuth Distance (km) Brightness Sun altitude
Exits shadow 23:08:55 32° 264° (W) 1,789 4.3 -33.5°
Drops below altitude 10° 23:13:06 10° 298° (WNW) 2,961 5.9 -33.7°
Sets 23:15:49 0° 306° (NW) 3,922 6.8 -33.8°
